When you browse on this site, cookies collect data to enhance your experience and personalize the content and advertising you see.
Visit our Privacy Policy to learn more. By continuing to use the site, you agree to this use of cookies and data.
  • In Latvia
  • List of Countries
  • For 7 days
  • Water Temperature
  • Satellite Maps
  • Weather Map
  • Weather Widgets
  • user-avatar
    Login

    Hourly Weather Zhlobin

    Today, 25 March, Monday

    Time Temperature Precipitation Wind Pressure Humidity
    00:00 +3°C° 0 mm 2 mps 748 mmHg 69%
    01:00 +2°C° 0 mm 2 mps 748 mmHg 71%
    02:00 +3°C° 0 mm 1 mps 748 mmHg 73%
    03:00 +2°C° 0 mm 1 mps 748 mmHg 73%
    04:00 +2°C° 0 mm 1 mps 748 mmHg 74%
    05:00 +1°C° 0 mm 0 mps 747 mmHg 75%
    06:00 +2°C° 0 mm 0 mps 747 mmHg 70%
    07:00 +4°C° 0 mm 1 mps 747 mmHg 66%
    08:00 +5°C° 0 mm 1 mps 746 mmHg 62%
    09:00 +6°C° 0 mm 1 mps 746 mmHg 56%
    10:00 +6°C° 0 mm 2 mps 746 mmHg 51%
    11:00 +8°C° 0 mm 2 mps 745 mmHg 46%
    12:00 +8°C° 0 mm 2 mps 745 mmHg 44%
    13:00 +9°C° 0 mm 2 mps 745 mmHg 42%
    14:00 +9°C° 0 mm 2 mps 744 mmHg 39%
    15:00 +9°C° 0 mm 2 mps 744 mmHg 41%
    16:00 +10°C° 0 mm 1 mps 743 mmHg 42%
    17:00 +10°C° 0 mm 1 mps 743 mmHg 43%
    18:00 +9°C° 0 mm 1 mps 743 mmHg 46%
    19:00 +6°C° 0 mm 0 mps 743 mmHg 49%
    20:00 +5°C° 0 mm 0 mps 743 mmHg 53%
    21:00 +5°C° 0 mm 0 mps 743 mmHg 54%
    22:00 +5°C° 0 mm 0 mps 743 mmHg 55%
    23:00 +5°C° 0 mm 0 mps 743 mmHg 56%

    Tomorrow, 26 March, Tuesday

    Time Temperature Precipitation Wind Pressure Humidity
    00:00 +4°C° 0 mm 0 mps 743 mmHg 57%
    01:00 +4°C° 0 mm 0 mps 743 mmHg 57%
    02:00 +3°C° 0 mm 0 mps 743 mmHg 58%
    03:00 +4°C° 0 mm 1 mps 743 mmHg 60%
    04:00 +4°C° 0 mm 1 mps 743 mmHg 62%
    05:00 +3°C° 0 mm 2 mps 743 mmHg 63%
    06:00 +3°C° 0.3 mm 2 mps 743 mmHg 67%
    07:00 +2°C° 0.3 mm 3 mps 743 mmHg 71%
    08:00 +1°C° 0.3 mm 4 mps 743 mmHg 75%
    09:00 +3°C° 0.1 mm 4 mps 744 mmHg 72%
    10:00 +2°C° 0.1 mm 5 mps 744 mmHg 69%
    11:00 +3°C° 0.1 mm 6 mps 745 mmHg 65%
    12:00 +3°C° 0 mm 6 mps 745 mmHg 56%
    13:00 +4°C° 0 mm 6 mps 745 mmHg 47%
    14:00 +4°C° 0 mm 6 mps 745 mmHg 38%
    15:00 +5°C° 0 mm 5 mps 745 mmHg 40%
    16:00 +3°C° 0 mm 5 mps 745 mmHg 41%
    17:00 +4°C° 0 mm 4 mps 745 mmHg 43%
    18:00 +3°C° 0 mm 3 mps 745 mmHg 48%
    19:00 +2°C° 0 mm 3 mps 745 mmHg 54%
    20:00 +2°C° 0 mm 2 mps 745 mmHg 60%
    21:00 +3°C° 0 mm 1 mps 745 mmHg 60%
    22:00 +2°C° 0 mm 1 mps 745 mmHg 61%
    23:00 +1°C° 0 mm 0 mps 745 mmHg 61%

    Day after tomorrow, 27 March, Wednesday

    Time Temperature Precipitation Wind Pressure Humidity
    00:00 +1°C° 0.1 mm 0 mps 745 mmHg 62%
    01:00 +1°C° 0.1 mm 0 mps 745 mmHg 63%
    02:00 +2°C° 0.1 mm 1 mps 745 mmHg 64%
    03:00 +2°C° 0.1 mm 1 mps 746 mmHg 68%
    04:00 -1°C° 0.1 mm 2 mps 746 mmHg 72%
    05:00 -1°C° 0.1 mm 3 mps 747 mmHg 75%
    06:00 -2°C° 0 mm 4 mps 748 mmHg 73%
    07:00 -1°C° 0 mm 5 mps 749 mmHg 71%
    08:00 -1°C° 0 mm 5 mps 750 mmHg 69%
    09:00 0°C° 0 mm 5 mps 750 mmHg 61%
    10:00 +1°C° 0 mm 6 mps 751 mmHg 54%
    11:00 +2°C° 0 mm 6 mps 752 mmHg 46%
    12:00 +2°C° 0 mm 6 mps 752 mmHg 45%
    13:00 +2°C° 0 mm 6 mps 753 mmHg 43%
    14:00 +3°C° 0 mm 6 mps 753 mmHg 42%
    15:00 +2°C° 0 mm 5 mps 753 mmHg 44%
    16:00 +2°C° 0 mm 5 mps 754 mmHg 46%
    17:00 +1°C° 0 mm 5 mps 754 mmHg 48%
    18:00 0°C° 0 mm 4 mps 755 mmHg 53%
    19:00 -1°C° 0 mm 4 mps 755 mmHg 59%
    20:00 -1°C° 0 mm 3 mps 756 mmHg 65%
    21:00 -1°C° 0 mm 3 mps 756 mmHg 67%
    22:00 -2°C° 0 mm 3 mps 757 mmHg 69%
    23:00 -2°C° 0 mm 2 mps 757 mmHg 71%

    28 March, Thursday

    Time Temperature Precipitation Wind Pressure Humidity
    00:00 -2°C° 0 mm 2 mps 758 mmHg 70%
    01:00 -2°C° 0 mm 2 mps 758 mmHg 69%
    02:00 -3°C° 0 mm 2 mps 758 mmHg 68%
    03:00 -3°C° 0 mm 2 mps 759 mmHg 67%
    04:00 -3°C° 0 mm 2 mps 759 mmHg 65%
    05:00 -3°C° 0 mm 2 mps 759 mmHg 64%
    06:00 -2°C° 0 mm 2 mps 759 mmHg 58%
    07:00 -1°C° 0 mm 2 mps 760 mmHg 53%
    08:00 0°C° 0 mm 3 mps 760 mmHg 47%
    09:00 +1°C° 0 mm 3 mps 760 mmHg 42%
    10:00 +2°C° 0 mm 3 mps 760 mmHg 36%
    11:00 +4°C° 0 mm 4 mps 761 mmHg 31%
    12:00 +4°C° 0 mm 3 mps 760 mmHg 30%
    13:00 +5°C° 0 mm 3 mps 760 mmHg 29%
    14:00 +5°C° 0 mm 3 mps 760 mmHg 28%
    15:00 +5°C° 0 mm 3 mps 760 mmHg 32%
    16:00 +6°C° 0 mm 2 mps 760 mmHg 35%
    17:00 +6°C° 0 mm 2 mps 760 mmHg 39%
    18:00 +4°C° 0 mm 2 mps 760 mmHg 44%
    19:00 +3°C° 0 mm 2 mps 760 mmHg 49%
    20:00 +2°C° 0 mm 2 mps 760 mmHg 54%
    21:00 +1°C° 0 mm 2 mps 760 mmHg 58%
    22:00 +1°C° 0 mm 2 mps 760 mmHg 62%
    23:00 +1°C° 0 mm 2 mps 760 mmHg 66%

    29 March, Friday

    Time Temperature Precipitation Wind Pressure Humidity
    00:00 +1°C° 0 mm 2 mps 760 mmHg 68%
    01:00 0°C° 0 mm 3 mps 760 mmHg 71%
    02:00 -1°C° 0 mm 3 mps 760 mmHg 74%
    03:00 -1°C° 0 mm 3 mps 760 mmHg 77%
    04:00 -1°C° 0 mm 3 mps 759 mmHg 79%
    05:00 -1°C° 0 mm 3 mps 759 mmHg 82%
    06:00 0°C° 0 mm 3 mps 759 mmHg 81%
    07:00 0°C° 0 mm 4 mps 759 mmHg 80%
    08:00 +3°C° 0 mm 4 mps 759 mmHg 79%
    09:00 +3°C° 0 mm 5 mps 759 mmHg 72%
    10:00 +6°C° 0 mm 5 mps 758 mmHg 66%
    11:00 +8°C° 0 mm 5 mps 758 mmHg 60%
    12:00 +9°C° 0 mm 5 mps 758 mmHg 56%
    13:00 +10°C° 0 mm 5 mps 757 mmHg 53%
    14:00 +12°C° 0 mm 5 mps 757 mmHg 49%
    15:00 +10°C° 0 mm 5 mps 757 mmHg 51%
    16:00 +11°C° 0 mm 4 mps 757 mmHg 52%
    17:00 +11°C° 0 mm 4 mps 756 mmHg 53%
    18:00 +10°C° 0 mm 4 mps 756 mmHg 58%
    19:00 +8°C° 0 mm 3 mps 757 mmHg 64%
    20:00 +7°C° 0 mm 3 mps 757 mmHg 69%
    21:00 +5°C° 0 mm 3 mps 757 mmHg 71%
    22:00 +5°C° 0 mm 3 mps 757 mmHg 74%
    23:00 +4°C° 0 mm 3 mps 756 mmHg 76%

    30 March, Saturday

    Time Temperature Precipitation Wind Pressure Humidity
    00:00 +4°C° 0 mm 3 mps 756 mmHg 79%
    01:00 +3°C° 0 mm 3 mps 756 mmHg 82%
    02:00 +3°C° 0 mm 3 mps 756 mmHg 85%
    03:00 +3°C° 0 mm 2 mps 756 mmHg 87%
    04:00 +3°C° 0 mm 2 mps 756 mmHg 89%
    05:00 +3°C° 0 mm 2 mps 756 mmHg 91%
    06:00 +3°C° 0 mm 3 mps 756 mmHg 88%
    07:00 +4°C° 0 mm 3 mps 756 mmHg 85%
    08:00 +5°C° 0 mm 3 mps 756 mmHg 82%
    09:00 +7°C° 0 mm 4 mps 756 mmHg 76%
    10:00 +10°C° 0 mm 4 mps 756 mmHg 70%
    11:00 +11°C° 0 mm 4 mps 755 mmHg 63%
    12:00 +12°C° 0 mm 4 mps 755 mmHg 60%
    13:00 +14°C° 0 mm 5 mps 755 mmHg 56%
    14:00 +15°C° 0 mm 5 mps 754 mmHg 52%
    15:00 +14°C° 0 mm 4 mps 754 mmHg 54%
    16:00 +14°C° 0 mm 4 mps 754 mmHg 55%
    17:00 +13°C° 0 mm 4 mps 753 mmHg 57%
    18:00 +12°C° 0 mm 3 mps 753 mmHg 64%
    19:00 +10°C° 0 mm 3 mps 753 mmHg 71%
    20:00 +9°C° 0 mm 2 mps 753 mmHg 77%
    21:00 +8°C° 0 mm 2 mps 753 mmHg 80%
    22:00 +8°C° 0 mm 2 mps 753 mmHg 83%
    23:00 +8°C° 0 mm 1 mps 753 mmHg 86%
    Show more